TimeAKDT,TemperatureF,Dew PointF,Humidity,Sea Level PressureIn,VisibilityMPH,Wind Direction,Wind SpeedMPH,Gust SpeedMPH,PrecipitationIn,Events,Conditions,WindDirDegrees,DateUTC
12:33 AM,33.8,30.2,87,30.03,1.8,SW,17.3,-,0.00,,Overcast,230,2014-05-16 08:33:00
12:53 AM,34.0,30.9,89,30.03,1.8,SW,19.6,26.5,0.00,,Overcast,230,2014-05-16 08:53:00
1:00 AM,33.8,30.2,87,30.03,2.5,SW,18.4,26.5,N/A,,Overcast,230,2014-05-16 09:00:00
1:11 AM,33.8,30.2,87,30.03,3.0,SW,19.6,-,N/A,,Overcast,230,2014-05-16 09:11:00
1:28 AM,33.8,30.2,87,30.03,3.0,SW,18.4,-,N/A,,Overcast,230,2014-05-16 09:28:00
1:53 AM,33.1,30.9,92,30.04,4.0,SW,16.1,-,N/A,,Overcast,230,2014-05-16 09:53:00
2:53 AM,33.1,30.9,92,30.04,10.0,SW,19.6,-,N/A,,Overcast,230,2014-05-16 10:53:00
3:53 AM,33.1,30.9,92,30.04,2.5,WSW,17.3,-,N/A,,Overcast,240,2014-05-16 11:53:00
4:01 AM,33.8,30.2,87,30.04,1.0,SW,17.3,-,N/A,,Overcast,230,2014-05-16 12:01:00
4:17 AM,33.8,30.2,87,30.04,3.0,WSW,17.3,-,N/A,,Overcast,240,2014-05-16 12:17:00
4:36 AM,33.8,30.2,87,30.04,9.0,SW,16.1,-,N/A,,Overcast,230,2014-05-16 12:36:00
4:53 AM,33.1,30.0,89,30.05,2.5,WSW,18.4,26.5,0.00,Snow,Light Snow,240,2014-05-16 12:53:00
5:02 AM,33.8,30.2,87,30.04,1.2,WSW,16.1,-,0.00,Snow,Light Snow,240,2014-05-16 13:02:00
5:24 AM,33.8,30.2,87,30.05,3.0,WSW,18.4,26.5,0.00,,Overcast,240,2014-05-16 13:24:00
5:53 AM,32.0,30.0,92,30.06,10.0,WSW,16.1,24.2,0.00,,Overcast,250,2014-05-16 13:53:00
6:53 AM,32.0,28.9,88,30.07,7.0,WSW,18.4,-,N/A,,Overcast,250,2014-05-16 14:53:00
7:15 AM,30.2,28.4,93,30.07,1.8,WSW,13.8,-,0.00,Snow,Light Snow,250,2014-05-16 15:15:00
7:53 AM,32.0,28.9,88,30.07,2.0,WSW,13.8,-,0.00,Snow,Light Snow,240,2014-05-16 15:53:00
8:00 AM,32.0,28.4,87,30.07,2.5,WSW,12.7,-,0.00,Snow,Light Snow,240,2014-05-16 16:00:00
8:03 AM,32.0,28.4,87,30.07,1.8,WSW,13.8,-,0.00,Snow,Light Snow,250,2014-05-16 16:03:00
8:14 AM,32.0,28.4,87,30.07,2.0,WSW,11.5,-,0.00,Snow,Light Snow,250,2014-05-16 16:14:00
8:18 AM,32.0,28.4,87,30.07,4.0,WSW,11.5,-,0.00,Snow,Light Snow,240,2014-05-16 16:18:00
8:53 AM,30.9,27.0,85,30.08,10.0,WSW,17.3,23.0,0.00,,Overcast,250,2014-05-16 16:53:00
9:53 AM,30.0,26.1,85,30.09,8.0,WSW,16.1,-,0.00,,Overcast,240,2014-05-16 17:53:00
10:53 AM,30.0,25.0,82,30.09,10.0,WSW,18.4,24.2,0.00,,Overcast,250,2014-05-16 18:53:00
11:53 AM,30.9,26.1,82,30.10,4.0,SW,19.6,24.2,0.00,Snow,Light Snow,230,2014-05-16 19:53:00
12:24 PM,30.2,26.6,86,30.10,2.0,WSW,16.1,-,0.00,Snow,Light Snow,240,2014-05-16 20:24:00
12:44 PM,32.0,26.6,80,30.10,9.0,SW,18.4,23.0,0.00,,Overcast,230,2014-05-16 20:44:00
12:53 PM,32.0,26.1,79,30.10,10.0,SW,18.4,-,0.00,,Overcast,230,2014-05-16 20:53:00
1:00 PM,32.0,26.6,80,30.10,10.0,SW,18.4,-,N/A,,Overcast,230,2014-05-16 21:00:00
1:53 PM,33.1,27.0,78,30.11,10.0,SW,17.3,-,N/A,,Overcast,230,2014-05-16 21:53:00
2:40 PM,33.8,26.6,75,30.10,10.0,WSW,16.1,-,0.00,,Overcast,240,2014-05-16 22:40:00
2:53 PM,32.0,27.0,82,30.11,6.0,WSW,16.1,-,0.00,Snow,Light Snow,250,2014-05-16 22:53:00
3:27 PM,33.8,28.4,81,30.11,6.0,SW,13.8,-,0.00,Snow,Light Snow,230,2014-05-16 23:27:00
3:53 PM,33.1,27.0,78,30.10,10.0,WSW,13.8,-,0.00,,Overcast,240,2014-05-16 23:53:00
4:15 PM,32.0,28.4,87,30.11,1.8,WSW,11.5,-,0.00,Snow,Light Snow,240,2014-05-17 00:15:00
4:28 PM,33.8,28.4,81,30.10,3.0,SW,15.0,-,0.00,Snow,Light Snow,230,2014-05-17 00:28:00
4:53 PM,32.0,27.0,82,30.11,5.0,WSW,13.8,-,0.00,Snow,Light Snow,240,2014-05-17 00:53:00
4:57 PM,32.0,28.4,87,30.10,2.5,WSW,12.7,-,0.00,Snow,Light Snow,250,2014-05-17 00:57:00
5:05 PM,32.0,28.4,87,30.11,1.5,WSW,11.5,-,0.00,Snow,Light Snow,240,2014-05-17 01:05:00
5:15 PM,32.0,28.4,87,30.10,3.0,WSW,15.0,-,0.00,Snow,Light Snow,250,2014-05-17 01:15:00
5:53 PM,32.0,27.0,82,30.10,10.0,WSW,12.7,-,0.00,,Mostly Cloudy,240,2014-05-17 01:53:00
6:20 PM,32.0,26.6,80,30.09,10.0,WSW,10.4,-,N/A,,Overcast,240,2014-05-17 02:20:00
6:53 PM,32.0,26.1,79,30.09,10.0,WSW,11.5,-,N/A,,Overcast,250,2014-05-17 02:53:00
7:53 PM,30.9,26.1,82,30.08,10.0,WSW,10.4,-,0.00,,Overcast,240,2014-05-17 03:53:00
8:53 PM,30.9,25.0,79,30.07,10.0,WSW,9.2,-,N/A,,Mostly Cloudy,250,2014-05-17 04:53:00
9:53 PM,30.9,25.0,79,30.06,10.0,West,5.8,-,N/A,,Overcast,270,2014-05-17 05:53:00
10:02 PM,30.2,24.8,80,30.05,10.0,WSW,5.8,-,N/A,,Overcast,250,2014-05-17 06:02:00
10:48 PM,30.2,24.8,80,30.04,2.5,SW,3.5,-,0.00,Snow,Light Snow,220,2014-05-17 06:48:00
10:49 PM,30.0,25.0,82,30.04,2.5,SW,3.5,-,0.00,Snow,Light Snow,220,2014-05-17 06:49:00
11:00 PM,30.2,26.6,86,30.04,1.5,SW,3.5,-,0.00,Snow,Light Snow,230,2014-05-17 07:00:00
11:12 PM,30.2,26.6,86,30.04,3.0,South,3.5,-,0.00,Snow,Light Snow,180,2014-05-17 07:12:00
11:30 PM,30.2,26.6,86,30.03,6.0,South,4.6,-,0.00,Snow,Light Snow,180,2014-05-17 07:30:00
11:41 PM,30.2,26.6,86,30.02,1.8,South,5.8,-,0.00,Snow,Light Snow,190,2014-05-17 07:41:00
11:53 PM,30.0,27.0,88,30.02,2.0,South,4.6,-,0.00,Snow,Light Snow,190,2014-05-17 07:53:00